This demonstration page uses our WeatherBlox Daily Observations layout. Learn more.

Left ArrowRight Arrow

39.01783, -85.05884

Hourly Observations for February 12, 2021

Temp ( °F °C ) Dew Point ( °F °C ) Humidity (%) Winds ( mph kmh ) Pressure ( in mb ) Visibility ( mi km ) Precip ( " mm )
12:52 am 00:52 Cloudy 21 -6.1 13 -10.6 71 71 NE 9 15 30.19 1022 10 16 0.00 0.00
1:52 am 01:52 Cloudy 21 -6.1 13 -10.6 71 71 NNE 12 19 30.19 1022 10 16 0.00 0.00
2:52 am 02:52 Cloudy 21 -6.1 13 -10.6 71 71 NNE 9 15 30.19 1022 7 11 0.00 0.00
3:52 am 03:52 Cloudy with Light Snow 20 -6.7 16 -8.9 85 85 N 12 19 30.19 1022 6 10 0.00 0.00
4:42 am 04:42 Cloudy with Light Snow 20 -6.7 16 -8.9 85 85 N 9 15 30.24 1024 3 5 0.01 0.25
4:52 am 04:52 Cloudy with Light Snow 20 -6.7 16 -8.9 85 85 N 12 19 30.20 1023 3 5 0.01 0.25
5:27 am 05:27 Cloudy 20 -6.7 15 -9.4 81 81 N 14 22 30.25 1024 8 13 0.00 0.00
5:52 am 05:52 Cloudy 20 -6.7 15 -9.4 81 81 N 12 19 30.22 1023 7 11 0.00 0.00
6:42 am 06:42 Cloudy 20 -6.7 14 -10 78 78 N 8 13 30.27 1025 9 14 0.00 0.00
6:52 am 06:52 Cloudy 20 -6.7 14 -10 78 78 N 7 11 30.22 1024 10 16 0.00 0.00
7:52 am 07:52 Cloudy 21 -6.1 14 -10 74 74 N 10 17 30.24 1024 10 16 0.00 0.00
8:04 am 08:04 Cloudy 21 -6.1 14 -10 74 74 NNW 9 15 30.29 1026 8 13 0.00 0.00
8:52 am 08:52 Cloudy 21 -6.1 14 -10 74 74 N 9 15 30.26 1025 8 13 0.00 0.00
9:52 am 09:52 Cloudy 23 -5 14 -10 68 68 N 5 7 30.25 1025 9 14 0.00 0.00
10:52 am 10:52 Cloudy 24 -4.4 15 -9.4 68 68 NNW 8 13 30.25 1025 9 14 0.00 0.00
11:52 am 11:52 Cloudy 27 -2.8 16 -8.9 63 63 N 6 9 30.26 1025 9 14 0.00 0.00
12:16 pm 12:16 Partly Cloudy 29 -1.7 16 -8.9 58 58 N 3 6 30.28 1025 9 14 0.00 0.00
12:52 pm 12:52 Partly Cloudy 30 -1.1 17 -8.3 58 58 N 5 7 30.24 1024 9 14 0.00 0.00
1:52 pm 13:52 Mostly Cloudy 32 0 17 -8.3 54 54 NNW 10 17 30.23 1024 10 16 0.00 0.00
2:52 pm 14:52 Partly Cloudy 32 0 18 -7.8 56 56 NNW 14 22 30.21 1023 10 16 0.00 0.00
3:52 pm 15:52 Partly Cloudy 31 -0.6 17 -8.3 56 56 N 14 22 30.22 1024 9 14 0.00 0.00
4:52 pm 16:52 Cloudy 30 -1.1 17 -8.3 58 58 N 15 24 30.23 1024 8 13 0.00 0.00
5:52 pm 17:52 Cloudy 28 -2.2 18 -7.8 66 66 N 13 20 30.25 1024 7 11 0.00 0.00
6:52 pm 18:52 Cloudy 27 -2.8 17 -8.3 66 66 N 14 22 30.27 1025 8 13 0.00 0.00
7:52 pm 19:52 Cloudy with Haze 26 -3.3 17 -8.3 69 69 N 13 20 30.27 1025 6 10 0.00 0.00
8:52 pm 20:52 Cloudy 25 -3.9 17 -8.3 72 72 N 12 19 30.27 1025 7 11 0.00 0.00
9:52 pm 21:52 Cloudy 25 -3.9 17 -8.3 72 72 N 13 20 30.26 1025 7 11 0.00 0.00
10:52 pm 22:52 Cloudy 25 -3.9 17 -8.3 72 72 NNE 10 17 30.26 1025 7 11 0.00 0.00
11:52 pm 23:52 Cloudy 25 -3.9 17 -8.3 72 72 NNE 9 15 30.24 1024 7 11 0.00 0.00

Powered by AerisWeather